KM7BEO Weather Reports


Display with metric or nautical units.
time (UTC)temp
F
wind
direction
speed
MPH
gust
MPH
rain 1hr
in
rain 24hr
in
rain mn
in
humidity
%
barometer
mb
20260506105657 50 76 0.0 2.0 0.00 0.00 0.00 95 1017.2
20260506105154 50 70 0.0 0.0 0.00 0.00 0.00 95 1017.3
20260506104652 50 70 0.0 1.0 0.00 0.00 0.00 95 1017.1
20260506104149 50 70 0.0 0.0 0.00 0.00 0.00 95 1017.1
20260506103646 50 70 0.0 0.0 0.00 0.00 0.00 95 1016.7
20260506103143 50 70 0.0 0.0 0.00 0.00 0.00 96 1017.1
20260506102641 50 70 0.0 0.0 0.00 0.00 0.00 96 1017.1
20260506102138 50 70 0.0 1.0 0.00 0.00 0.00 96 1016.9
20260506101635 50 70 0.0 0.0 0.00 0.00 0.00 96 1016.8
20260506101132 50 70 0.0 1.0 0.00 0.00 0.00 96 1016.9
20260506100631 50 84 0.0 1.0 0.00 0.00 0.00 96 1016.8
20260506100128 49 75 0.0 1.0 0.00 0.00 0.00 96 1016.9
20260506095627 49 80 0.0 0.0 0.00 0.00 0.00 96 1016.9
20260506095123 49 81 0.0 1.0 0.00 0.00 0.00 96 1016.8
20260506094620 49 85 0.0 1.0 0.00 0.00 0.00 96 1016.8
20260506094118 48 81 0.0 0.0 0.00 0.00 0.00 96 1016.9
20260506093616 48 81 0.0 0.0 0.00 0.00 0.00 96 1017.0
20260506093113 48 83 0.0 0.0 0.00 0.00 0.00 96 1016.8
20260506092611 49 83 0.0 0.0 0.00 0.00 0.00 96 1016.6
20260506092108 48 93 0.0 1.0 0.00 0.00 0.00 96 1016.7
20260506091606 48 91 0.0 1.0 0.00 0.00 0.00 96 1016.8
20260506091103 48 81 0.0 1.0 0.00 0.00 0.00 96 1016.7
20260506090601 48 78 0.0 0.0 0.00 0.00 0.00 96 1016.7
20260506090057 48 75 0.0 0.0 0.00 0.00 0.00 96 1016.7
20260506085554 48 75 0.0 0.0 0.00 0.00 0.00 96 1017.0
20260506085050 48 76 0.0 0.0 0.00 0.00 0.00 96 1016.7
20260506084547 48 76 0.0 0.0 0.00 0.00 0.00 96 1016.7
20260506084043 48 80 0.0 0.0 0.00 0.00 0.00 95 1016.6
20260506083541 48 75 0.0 1.0 0.00 0.00 0.00 96 1016.6
20260506083038 48 72 0.0 0.0 0.00 0.00 0.00 96 1016.6
20260506082535 48 76 0.0 0.0 0.00 0.00 0.00 95 1016.6
20260506082030 48 72 0.0 0.0 0.00 0.00 0.00 95 1016.6
20260506081529 49 73 0.0 0.0 0.00 0.00 0.00 95 1016.5
20260506081026 49 81 0.0 0.0 0.00 0.00 0.00 95 1016.4
20260506080523 49 73 0.0 0.0 0.00 0.00 0.00 95 1016.2
20260506073507 48 73 0.0 0.0 0.00 0.00 0.00 95 1016.0
20260506073004 48 82 0.0 0.0 0.00 0.00 0.00 95 1016.1
20260506072501 48 82 0.0 1.0 0.00 0.00 0.00 95 1015.8
20260506071959 49 80 0.0 0.0 0.00 0.00 0.00 94 1015.9
20260506071456 49 82 0.0 0.0 0.00 0.00 0.00 95 1015.9
20260506070953 49 75 0.0 0.0 0.00 0.00 0.00 94 1015.9
20260506070450 49 77 0.0 0.0 0.00 0.00 0.00 94 1015.9
20260506062428 49 78 0.0 1.0 0.00 0.00 0.00 94 1015.8
20260506061923 49 59 1.0 3.0 0.00 0.00 0.00 93 1015.8
20260506061420 50 85 0.0 0.0 0.00 0.00 0.00 93 1015.9
20260506060918 50 82 0.0 2.0 0.00 0.00 0.00 93 1015.9
20260506060416 50 78 0.0 2.0 0.00 0.00 0.00 93 1015.8
20260506051348 50 95 0.0 1.0 0.00 0.00 0.00 92 1015.6
20260506050845 50 80 0.0 1.0 0.00 0.00 0.00 92 1015.5
20260506050343 50 87 0.0 1.0 0.00 0.00 0.00 92 1015.5
20260506044833 50 82 0.0 0.0 0.00 0.00 0.00 91 1015.4
20260506044331 50 83 0.0 1.0 0.00 0.00 0.00 91 1015.2
20260506043828 50 75 0.0 1.0 0.00 0.00 0.00 91 1015.1
20260506043325 51 83 0.0 0.0 0.00 0.00 0.00 91 1015.2
20260506042823 51 79 0.0 0.0 0.00 0.00 0.00 90 1015.1
20260506042322 51 90 1.0 1.0 0.00 0.00 0.00 91 1015.2
20260506041821 50 86 1.0 1.0 0.00 0.00 0.00 90 1014.9
20260506041317 51 81 0.0 0.0 0.00 0.00 0.00 89 1014.8
20260506040814 51 80 0.0 0.0 0.00 0.00 0.00 89 1014.8
20260506040312 51 84 0.0 0.0 0.00 0.00 0.00 89 1014.9
20260506035808 51 76 0.0 2.0 0.00 0.00 0.00 89 1014.6
20260506035306 51 82 0.0 1.0 0.00 0.00 0.00 89 1014.6
20260506034802 52 82 0.0 0.0 0.00 0.00 0.00 88 1014.4
20260506034259 52 82 0.0 0.0 0.00 0.00 0.00 87 1014.5
20260506033756 52 82 0.0 0.0 0.00 0.00 0.00 87 1014.5
20260506033253 53 82 0.0 0.0 0.00 0.00 0.00 86 1014.6
20260506032750 53 82 0.0 0.0 0.00 0.00 0.00 86 1014.5
20260506032247 53 82 0.0 0.0 0.00 0.00 0.00 85 1014.5
20260506031744 53 84 0.0 0.0 0.00 0.00 0.00 84 1014.5
20260506031241 54 84 0.0 0.0 0.00 0.00 0.00 84 1014.6
20260506030739 54 85 0.0 2.0 0.00 0.00 0.00 83 1014.6
20260506030236 55 87 0.0 2.0 0.00 0.00 0.00 82 1014.5
20260506025733 55 113 2.0 3.0 0.00 0.00 0.00 82 1014.4
20260506025230 55 84 0.0 1.0 0.00 0.00 0.00 81 1014.6
20260506024726 55 86 0.0 1.0 0.00 0.00 0.00 81 1014.5
20260506024223 55 100 3.0 3.0 0.00 0.00 0.00 80 1014.5
20260506023719 56 118 1.0 3.0 0.00 0.00 0.00 80 1014.5
20260506023217 56 99 2.0 2.0 0.00 0.00 0.00 79 1014.3
20260506022713 57 102 2.0 2.0 0.00 0.00 0.00 78 1014.4
20260506022211 57 76 0.0 1.0 0.00 0.00 0.00 78 1014.5
20260506021709 57 76 1.0 2.0 0.00 0.00 0.00 78 1014.5
20260506021206 57 79 0.0 2.0 0.00 0.00 0.00 77 1014.4
20260506020703 58 94 1.0 2.0 0.00 0.00 0.00 77 1014.5
20260506020201 58 89 2.0 3.0 0.00 0.00 0.00 76 1014.4
20260506015658 58 87 1.0 3.0 0.00 0.00 0.00 75 1014.5
20260506015155 58 104 1.0 3.0 0.00 0.00 0.00 76 1014.3
20260506014652 59 94 2.0 6.0 0.00 0.00 0.00 75 1014.5
20260506014148 59 137 2.0 6.0 0.00 0.00 0.00 74 1014.5
20260506013646 59 78 1.0 2.0 0.00 0.00 0.00 75 1014.5
20260506013143 59 334 4.0 6.0 0.00 0.00 0.00 76 1014.4
20260506012639 59 96 1.0 2.0 0.00 0.00 0.00 75 1014.5
20260506012136 59 98 1.0 4.0 0.00 0.00 0.00 75 1014.5
20260506011633 60 84 0.0 3.0 0.00 0.00 0.00 74 1014.4
20260506011129 60 241 2.0 6.0 0.00 0.00 0.00 74 1014.3
20260506010628 59 78 2.0 4.0 0.00 0.00 0.00 75 1014.5
20260506010125 60 184 4.0 7.0 0.00 0.00 0.00 74 1014.4
20260506005622 61 127 2.0 7.0 0.00 0.00 0.00 73 1014.4
20260506005118 61 89 2.0 4.0 0.00 0.00 0.00 74 1014.3
20260506004615 61 102 1.0 6.0 0.00 0.00 0.00 73 1014.4
20260506004112 61 113 2.0 6.0 0.00 0.00 0.00 75 1014.5
20260506003608 61 138 2.0 3.0 0.00 0.00 0.00 74 1014.6
20260506003105 61 127 2.0 3.0 0.00 0.00 0.00 76 1014.5
20260506002600 60 203 4.0 4.0 0.00 0.00 0.00 76 1014.5
20260506002057 60 79 1.0 4.0 0.00 0.00 0.00 76 1014.4
20260506001553 60 188 2.0 3.0 0.00 0.00 0.00 77 1014.5
20260506001050 60 150 2.0 4.0 0.00 0.00 0.00 75 1014.5
20260506000548 60 68 1.0 3.0 0.00 0.00 0.00 76 1014.6
20260506000045 60 135 2.0 3.0 0.00 0.00 0.00 75 1014.5
20260505235543 60 84 1.0 3.0 0.00 0.00 0.00 75 1014.6
20260505235040 60 111 2.0 2.0 0.00 0.00 0.00 77 1014.6
20260505234537 60 126 4.0 4.0 0.00 0.00 0.00 76 1014.7
20260505234033 60 102 1.0 4.0 0.00 0.00 0.00 75 1014.6
20260505233531 61 130 2.0 4.0 0.00 0.00 0.00 74 1014.7
20260505233028 61 150 3.0 4.0 0.00 0.00 0.00 75 1014.8
20260505232526 61 201 3.0 4.0 0.00 0.00 0.00 74 1014.8
20260505232023 61 167 1.0 3.0 0.00 0.00 0.00 73 1014.9
20260505231520 62 105 2.0 2.0 0.00 0.00 0.00 72 1014.8
20260505231019 61 111 2.0 4.0 0.00 0.00 0.00 74 1015.0
20260505230516 61 115 2.0 3.0 0.00 0.00 0.00 74 1015.0
20260505230012 61 129 2.0 4.0 0.00 0.00 0.00 74 1014.9
20260505225509 62 92 0.0 6.0 0.00 0.00 0.00 73 1014.9
20260505225005 61 118 2.0 4.0 0.00 0.00 0.00 74 1015.1
20260505224502 60 152 3.0 3.0 0.00 0.00 0.00 75 1015.0
20260505223959 61 144 2.0 4.0 0.00 0.00 0.00 75 1015.1
20260505223456 61 100 2.0 4.0 0.00 0.00 0.00 75 1015.0
20260505222952 61 104 2.0 3.0 0.00 0.00 0.00 76 1015.1
20260505222449 61 130 3.0 3.0 0.00 0.00 0.00 76 1015.1
20260505221944 61 122 2.0 3.0 0.00 0.00 0.00 76 1015.2
20260505221442 61 90 2.0 4.0 0.00 0.00 0.00 77 1015.3
20260505220939 61 113 3.0 6.0 0.00 0.00 0.00 75 1015.2
20260505220436 61 97 1.0 4.0 0.00 0.00 0.00 76 1015.3
20260505215934 62 82 0.0 3.0 0.00 0.00 0.00 74 1015.3
20260505215432 61 108 2.0 3.0 0.00 0.00 0.00 76 1015.5
20260505214929 61 98 1.0 3.0 0.00 0.00 0.00 74 1015.4
20260505214427 60 115 2.0 3.0 0.00 0.00 0.00 77 1015.4
20260505213924 61 100 1.0 4.0 0.00 0.00 0.00 75 1015.7
20260505213421 61 88 2.0 3.0 0.00 0.00 0.00 75 1015.6
20260505212917 60 101 1.0 2.0 0.00 0.00 0.00 77 1015.8
20260505212414 60 75 1.0 3.0 0.00 0.00 0.00 78 1015.7
20260505211911 59 109 2.0 3.0 0.00 0.00 0.00 77 1015.6
20260505211409 59 80 1.0 2.0 0.00 0.00 0.00 78 1015.6
20260505210904 59 78 1.0 2.0 0.00 0.00 0.00 78 1015.6
20260505210402 59 74 1.0 2.0 0.00 0.00 0.00 80 1015.4
20260505205859 58 81 0.0 2.0 0.00 0.00 0.00 82 1015.6
20260505205357 57 120 2.0 3.0 0.00 0.00 0.00 81 1015.6
20260505204853 58 91 2.0 4.0 0.00 0.00 0.00 80 1015.7
20260505204351 58 85 1.0 3.0 0.00 0.00 0.00 80 1015.7
20260505203848 58 122 2.0 3.0 0.00 0.00 0.00 80 1015.7
20260505203344 58 95 2.0 3.0 0.00 0.00 0.00 81 1015.6
20260505202841 57 77 2.0 3.0 0.00 0.00 0.00 82 1015.6
20260505202337 57 97 1.0 1.0 0.00 0.00 0.00 82 1015.7
20260505201834 57 93 2.0 2.0 0.00 0.00 0.00 82 1015.6
20260505201331 57 104 2.0 3.0 0.00 0.00 0.00 82 1015.7
20260505200830 57 126 1.0 3.0 0.00 0.00 0.00 81 1015.7
20260505200326 57 78 1.0 3.0 0.00 0.00 0.00 81 1015.6
20260505195822 57 158 4.0 4.0 0.00 0.00 0.00 81 1015.6
20260505195319 57 90 1.0 2.0 0.00 0.00 0.00 82 1015.6
20260505194816 57 109 2.0 3.0 0.00 0.00 0.00 81 1015.6
20260505194314 57 89 0.0 1.0 0.00 0.00 0.00 83 1015.8
20260505193808 57 141 2.0 3.0 0.00 0.00 0.00 82 1015.9
20260505193307 57 74 0.0 2.0 0.00 0.00 0.00 82 1015.8
20260505192805 57 95 1.0 2.0 0.00 0.00 0.00 82 1015.7
20260505192305 58 81 2.0 4.0 0.00 0.00 0.00 80 1015.7
20260505191800 57 88 1.0 3.0 0.00 0.00 0.00 81 1015.5
20260505191258 57 93 1.0 2.0 0.00 0.00 0.00 81 1015.7
20260505190754 57 95 1.0 3.0 0.00 0.00 0.00 82 1015.6
20260505190249 57 93 1.0 2.0 0.00 0.00 0.00 82 1015.7
20260505185746 57 126 0.0 4.0 0.00 0.00 0.00 82 1015.5
20260505185242 57 95 1.0 3.0 0.00 0.00 0.00 83 1015.6
20260505184738 56 76 3.0 4.0 0.00 0.00 0.00 83 1015.7
20260505184236 56 96 1.0 3.0 0.00 0.00 0.00 83 1015.5
20260505183733 56 103 1.0 2.0 0.00 0.00 0.00 84 1015.6
20260505183230 56 80 2.0 3.0 0.00 0.00 0.00 85 1015.6
20260505182726 56 113 1.0 3.0 0.00 0.00 0.00 84 1015.6
20260505182223 56 89 2.0 3.0 0.00 0.00 0.00 85 1015.4
20260505181720 56 87 1.0 2.0 0.00 0.00 0.00 85 1015.5
20260505181217 56 83 1.0 2.0 0.00 0.00 0.00 85 1015.5
20260505180714 56 91 2.0 3.0 0.00 0.00 0.00 85 1015.4
20260505180210 55 79 0.0 3.0 0.00 0.00 0.00 86 1015.3
20260505175706 55 101 3.0 3.0 0.00 0.00 0.00 85 1015.4
20260505175203 55 105 1.0 2.0 0.00 0.00 0.00 85 1015.6
20260505174700 55 83 0.0 2.0 0.00 0.00 0.00 85 1015.5
20260505174156 55 81 1.0 7.0 0.00 0.00 0.00 85 1015.4
20260505173653 55 85 1.0 2.0 0.00 0.00 0.00 86 1015.3
20260505173150 55 99 4.0 6.0 0.00 0.00 0.00 86 1015.3
20260505172647 55 89 0.0 2.0 0.00 0.00 0.00 86 1015.2
20260505172144 55 84 1.0 2.0 0.00 0.00 0.00 86 1015.3
20260505171643 55 108 2.0 2.0 0.00 0.00 0.00 86 1015.2
20260505171141 55 82 0.0 2.0 0.00 0.00 0.00 87 1015.2
20260505170638 55 84 1.0 4.0 0.00 0.00 0.00 87 1015.3
20260505170135 55 86 1.0 2.0 0.00 0.00 0.00 87 1015.2
20260505165635 55 86 1.0 2.0 0.00 0.00 0.00 87 1015.2
20260505165131 55 98 0.0 2.0 0.00 0.00 0.00 87 1015.4